Weather History for Kemmerer, WY

Change the Weather History Date:

Saturday, July 13, 2013

  Actual Average Record
Temperature  
Mean Temperature 64 °F -  
Max Temperature 76 °F 81 °F 90 °F (1974)
Min Temperature 53 °F 44 °F 32 °F (1993)
Growing Degree Days 14 (Base 50)    
Moisture  
Dew Point 46 °F    
Average Humidity 59    
Maximum Humidity 92    
Minimum Humidity 29    
Precipitation  
Precipitation 0.61 in - - ()
Sea Level Pressure  
Sea Level Pressure 30.29 in    
Wind  
Wind Speed 7 mph (North)    
Max Wind Speed 22 mph    
Max Gust Speed 28 mph    
Visibility 10 miles    
Events Rain , Thunderstorm    
Averages and records for this station are not official NWS values.
T = Trace of Precipitation, MM = Missing Value Source: NWS Daily Summary

Daily Weather History Graph

Daily Weather History Graph

Search for Another Location

Airport:

Trip Planner

Search our weather history database for the weather conditions in past years. The results will help you decide how hot, cold, wet, or windy it might be!

Date:

Astronomy

Jul. 13, 2013 Rise Set
Actual Time 5:59 AM MDT 8:56 PM MDT
Civil Twilight 5:25 AM MDT 9:29 PM MDT
Nautical Twilight 4:43 AM MDT 10:11 PM MDT
Astronomical Twilight 3:53 AM MDT 11:01 PM MDT
Moon 11:24 AM MDT (7/13) 11:32 PM MDT (7/13)
Length of Visible Light 16h 03m
Length of Day
14h 57m
Waxing Crescent, 26% of the Moon is Illuminated
Jul 13
Waxing Crescent
Jul 15
First Quarter
Jul 22
Full
Jul 29
Last Quarter
Aug 6
New

Hourly Weather History & Observations

Time (MDT) Temp. Dew Point Humidity Pressure Visibility Wind Dir Wind Speed Gust Speed Precip Events Conditions
12:15 AM 61.9 °F 41.9 °F 48% 30.24 in 10.0 mi Calm Calm - N/A   Clear
12:35 AM 61.7 °F 41.2 °F 47% 30.24 in 10.0 mi Calm Calm - N/A   Clear
12:55 AM 59.7 °F 41.5 °F 51% 30.24 in 10.0 mi North 3.5 mph - N/A   Clear
1:15 AM 57.0 °F 42.3 °F 58% 30.24 in 10.0 mi North 6.9 mph - N/A   Clear
1:35 AM 55.6 °F 42.4 °F 61% 30.24 in 10.0 mi North 6.9 mph - N/A   Clear
1:55 AM 55.9 °F 42.3 °F 60% 30.24 in 10.0 mi North 6.9 mph - N/A   Clear
2:15 AM 54.9 °F 42.8 °F 64% 30.24 in 10.0 mi North 4.6 mph - N/A   Clear
2:35 AM 55.0 °F 42.8 °F 63% 30.24 in 10.0 mi North 8.1 mph - N/A   Clear
2:55 AM 54.9 °F 42.8 °F 64% 30.24 in 10.0 mi North 9.2 mph - N/A   Clear
3:15 AM 55.0 °F 42.8 °F 63% 30.22 in 10.0 mi North 10.4 mph - N/A   Clear
3:35 AM 54.5 °F 43.0 °F 65% 30.23 in 10.0 mi NNW 9.2 mph - N/A   Clear
3:55 AM 54.5 °F 42.8 °F 65% 30.24 in 10.0 mi NNW 8.1 mph - N/A   Clear
4:15 AM 53.6 °F 43.0 °F 67% 30.23 in 10.0 mi North 6.9 mph - N/A   Clear
4:35 AM 53.6 °F 43.0 °F 67% 30.24 in 10.0 mi NNW 8.1 mph - N/A   Scattered Clouds
4:55 AM 54.1 °F 42.6 °F 65% 30.24 in 10.0 mi NNW 9.2 mph - N/A   Clear
5:15 AM 54.1 °F 42.4 °F 65% 30.24 in 10.0 mi NNW 10.4 mph - N/A   Scattered Clouds
5:35 AM 54.1 °F 42.6 °F 65% 30.24 in 10.0 mi NNW 10.4 mph - N/A   Scattered Clouds
5:55 AM 54.3 °F 42.4 °F 64% 30.24 in 10.0 mi North 9.2 mph - N/A   Mostly Cloudy
6:15 AM 53.1 °F 43.2 °F 69% 30.25 in 10.0 mi North 5.8 mph - N/A   Overcast
6:35 AM 53.4 °F 43.5 °F 69% 30.25 in 10.0 mi North 3.5 mph - N/A   Overcast
6:55 AM 54.5 °F 43.2 °F 66% 30.25 in 10.0 mi NNW 5.8 mph - N/A   Overcast
7:15 AM 55.4 °F 43.2 °F 63% 30.26 in 10.0 mi NW 6.9 mph - N/A   Overcast
7:35 AM 55.4 °F 43.0 °F 63% 30.27 in 10.0 mi NNW 9.2 mph - N/A   Overcast
7:55 AM 55.6 °F 43.0 °F 63% 30.27 in 10.0 mi NNE 4.6 mph - N/A   Overcast
8:15 AM 55.9 °F 43.0 °F 62% 30.27 in 10.0 mi North 4.6 mph - N/A   Overcast
8:35 AM 58.6 °F 43.5 °F 57% 30.27 in 10.0 mi Calm Calm - N/A   Overcast
8:55 AM 60.8 °F 43.5 °F 53% 30.28 in 10.0 mi WSW 6.9 mph - N/A   Overcast
9:15 AM 61.0 °F 44.4 °F 54% 30.28 in 10.0 mi Calm Calm - N/A Thunderstorm Mostly Cloudy
9:35 AM 63.1 °F 44.2 °F 50% 30.28 in 10.0 mi Calm Calm - N/A   Overcast
9:55 AM 65.7 °F 44.4 °F 46% 30.28 in 10.0 mi Calm Calm - N/A   Overcast
10:15 AM 66.2 °F 44.8 °F 46% 30.28 in 10.0 mi Calm Calm - N/A   Overcast
10:35 AM 67.3 °F 43.5 °F 42% 30.28 in 10.0 mi Calm Calm - N/A   Overcast
10:55 AM 68.5 °F 43.2 °F 40% 30.29 in 10.0 mi Calm Calm - N/A   Overcast
11:15 AM 70.3 °F 42.1 °F 36% 30.29 in 10.0 mi SW 5.8 mph - N/A   Overcast
11:35 AM 71.4 °F 40.8 °F 33% 30.29 in 10.0 mi WSW 8.1 mph - N/A Rain Light Rain
11:55 AM 68.9 °F 43.7 °F 40% 30.29 in 10.0 mi West 21.9 mph 25.3 mph N/A Rain Light Rain
12:15 PM 63.9 °F 46.9 °F 54% 30.31 in 10.0 mi West 18.4 mph 23.0 mph N/A   Overcast
12:35 PM 60.8 °F 49.5 °F 66% 30.34 in 10.0 mi West 18.4 mph 25.3 mph 0.01 in Rain Rain
12:55 PM 57.4 °F 52.9 °F 85% 30.34 in 7.0 mi WNW 17.3 mph - 0.05 in Rain Rain
1:15 PM 58.6 °F 54.7 °F 87% 30.34 in 10.0 mi North 12.7 mph - 0.01 in Rain , Thunderstorm Light Thunderstorms and Rain
1:35 PM 61.0 °F 55.0 °F 81% 30.30 in 10.0 mi NE 10.4 mph - 0.01 in   Overcast
1:55 PM 63.3 °F 55.4 °F 75% 30.32 in 10.0 mi NNW 10.4 mph - 0.01 in   Mostly Cloudy
2:15 PM 67.6 °F 54.5 °F 63% 30.32 in 10.0 mi NNW 11.5 mph - N/A   Scattered Clouds
2:35 PM 70.3 °F 52.2 °F 52% 30.32 in 10.0 mi NNW 8.1 mph - N/A   Clear
2:55 PM 72.1 °F 45.9 °F 39% 30.31 in 10.0 mi NW 3.5 mph - N/A   Clear
3:15 PM 74.1 °F 45.7 °F 36% 30.30 in 10.0 mi North 8.1 mph - N/A   Clear
3:35 PM 75.2 °F 44.2 °F 33% 30.30 in 10.0 mi Calm Calm - N/A   Clear
3:55 PM 76.1 °F 42.3 °F 30% 30.30 in 10.0 mi North 4.6 mph - N/A   Clear
4:15 PM 73.8 °F 41.5 °F 31% 30.29 in 10.0 mi Calm Calm - N/A   Clear
4:35 PM 74.7 °F 41.4 °F 30% 30.29 in 10.0 mi Calm Calm - N/A   Scattered Clouds
4:55 PM 76.1 °F 41.4 °F 29% 30.29 in 10.0 mi Calm Calm - N/A   Scattered Clouds
5:15 PM 73.6 °F 44.2 °F 35% 30.29 in 10.0 mi East 12.7 mph - N/A   Overcast
5:35 PM 72.7 °F 45.3 °F 38% 30.28 in 10.0 mi East 10.4 mph - N/A   Mostly Cloudy
5:55 PM 72.7 °F 44.8 °F 37% 30.27 in 10.0 mi East 10.4 mph - N/A   Mostly Cloudy
6:15 PM 72.7 °F 44.6 °F 37% 30.27 in 10.0 mi ESE 3.5 mph - N/A   Mostly Cloudy
6:35 PM 72.0 °F 44.4 °F 37% 30.27 in 10.0 mi East 8.1 mph - N/A Thunderstorm Overcast
6:55 PM 69.8 °F 48.7 °F 47% 30.27 in 10.0 mi ENE 10.4 mph - 0.01 in Rain , Thunderstorm Light Thunderstorms and Rain
7:15 PM 67.8 °F 51.8 °F 56% 30.28 in 10.0 mi ESE 9.2 mph - N/A Thunderstorm Thunderstorm
7:35 PM 66.4 °F 50.2 °F 56% 30.29 in 10.0 mi NNW 9.2 mph - N/A   Overcast
7:55 PM 63.0 °F 50.7 °F 64% 30.30 in 10.0 mi North 16.1 mph 24.2 mph N/A   Overcast
8:15 PM 59.5 °F 51.3 °F 74% 30.31 in 10.0 mi NNW 19.6 mph 27.6 mph 0.01 in Rain Rain
8:35 PM 57.0 °F 52.7 °F 85% 30.37 in 4.0 mi WNW 16.1 mph - 0.15 in Rain , Thunderstorm Heavy Thunderstorms and Rain
8:55 PM 55.6 °F 52.5 °F 89% 30.38 in 2.5 mi North 19.6 mph 23.0 mph 0.44 in Rain , Thunderstorm Heavy Thunderstorms and Rain
9:15 PM 54.1 °F 51.4 °F 91% 30.38 in 5.0 mi North 9.2 mph - 0.10 in Rain , Thunderstorm Rain
9:35 PM 54.0 °F 51.6 °F 92% 30.38 in 10.0 mi NE 17.3 mph 23.0 mph 0.10 in   Overcast
9:55 PM 54.5 °F 50.2 °F 85% 30.37 in 10.0 mi NE 16.1 mph 24.2 mph 0.10 in   Overcast
10:15 PM 54.5 °F 48.4 °F 80% 30.37 in 10.0 mi NE 10.4 mph 19.6 mph N/A   Scattered Clouds
10:35 PM 54.3 °F 48.4 °F 80% 30.37 in 10.0 mi NNE 11.5 mph - N/A   Clear
10:55 PM 54.3 °F 48.4 °F 80% 30.37 in 10.0 mi North 9.2 mph - N/A   Clear
11:15 PM 54.3 °F 48.2 °F 80% 30.37 in 10.0 mi North 10.4 mph - N/A   Clear
11:35 PM 54.7 °F 47.3 °F 76% 30.36 in 10.0 mi North 10.4 mph - N/A   Clear
11:55 PM 56.3 °F 45.7 °F 68% 30.35 in 10.0 mi NNE 12.7 mph 17.3 mph N/A   Clear